Location: Clarks Summit,Pa.
(41.5000°N, 75.6000°W)
Time: 02:02:59
(UTC-05:00)

Envisat - Pass Details

Date: 30 November 2021
Orbit: 764 x 766 km, 98.2° (Epoch: 18 January)

Event Time Altitude Azimuth Distance (km) Brightness Sun altitude
Rises 17:37:35 0° 215° (SW) 3,219 7.2 -11.8°
Reaches altitude 10° 17:41:10 10° 242° (WSW) 2,300 6.9 -12.4°
Maximum altitude 17:43:35 13° 271° (W) 2,077 6.4 -12.9°
Drops below altitude 10° 17:46:00 10° 299° (WNW) 2,308 6.1 -13.3°
Sets 17:49:37 0° 326° (NW) 3,241 6.5 -13.9°
